Regional Weather Roundup
Issued by NWS

Home | Current Version | Previous Version | Text Only | Print | Product List | Glossary On
Versions: 1 2 3 4 5 6 7 8 9 10 11 12 13 14 15 16 17 18 19 20 21 22 23 24 25 26 27 28 29 30 31 32 33 34 35 36 37 38 39 40 41 42 43 44 45 46 47 48 49 50
000
ASUS44 KLIX 252310
RWRLA
LOUISIANA WEATHER ROUNDUP
NATIONAL WEATHER SERVICE NEW ORLEANS LA
600 PM CDT FRI JUL 25 2014

NOTE: "FAIR" INDICATES FEW OR NO CLOUDS BELOW 12,000 FEET WITH NO
      SIGNIFICANT WEATHER AND/OR OBSTRUCTIONS TO VISIBILITY.
      SKY/WX - SKY CONDITION AND SIGNIFICANT WEATHER.
      TMP - AIR TEMPERATURE.    DP   - DEWPOINT TEMPERATURE.
      RH  - RELATIVE HUMIDITY.  PRES - PRESSURE.
      HX  - HEAT INDEX.         WCI  - WIND CHILL INDEX.

*  THESE STATIONS ARE NOT NWS OR FAA STATIONS AND ARE NOT UNDER
   NWS QUALITY CONTROL.

LAZ040-048-061>063-065-066-069-260000-
SOUTHEAST LOUISIANA

CITY           SKY/WX    TMP DP  RH WIND       PRES   REMARKS
N.O. AUDUBON     N/A     84  73  68 MISG        N/A
N.O. INTL ARPT PTSUNNY   84  75  74 S7        29.98F
N.O. LAKEFRONT PTSUNNY   85  71  63 SW10      29.98S
N.O. DOWNTOWN* FAIR      84  72  65 SW5       29.98F
SLIDELL        CLOUDY    86  74  67 N6        29.97F
BATON ROUGE    MOSUNNY   92  73  53 W7        29.97R HX 100
BOOTHVILLE     MOSUNNY   85  75  72 SW13      30.01R
BELLE CHASSE   PTSUNNY   83  72  69 W6        29.97F
BOGALUSA*      FAIR      85  71  63 MISG      29.98F
GALLIANO*      NOT AVBL
NEW ROADS*     FAIR      91  74  57 NW5       29.97S HX  99
GONZALES*      CLOUDY    90  75  61 CALM      29.96S HX 101
HAMMOND*       MOSUNNY   93  68  43 CALM      29.98S HX  97
HOUMA*         MOSUNNY   86  72  62 SW3       29.99R
PORT FOURCHON* PTCLDY    88  75  66 SW10G16   30.02S HX  97

$$

LAZ041-044-053-054-260000-
SOUTHWEST LOUISIANA

CITY           SKY/WX    TMP DP  RH WIND       PRES   REMARKS
LAKE CHARLES   MOSUNNY   84  74  71 NW6       29.96S HAZE
LAFAYETTE      CLOUDY    82  77  84 S10       29.98F
PATTERSON      SUNNY     90  75  62 SW9       30.03S HX 100
SALT POINT       N/A     90  75  61 VRB5      29.98S HX 100
NEW IBERIA     CLOUDY    81  76  84 W7        29.99S
CHENAULT AIRPK MOSUNNY   90  72  55 SW9       29.97S HX  96

$$

LAZ027-028-260000-
CENTRAL LOUISIANA

CITY           SKY/WX    TMP DP  RH WIND       PRES   REMARKS
FORT POLK      SUNNY     91  71  51 NE6       29.96F HX  97
ALEXANDRIA INT SUNNY     94  71  47 N5        29.94F HX 101
ALEXANDRIA     MOSUNNY   94  72  48 VRB5      29.96S HX 102

$$

LAZ001-002-260000-
NORTHWEST LOUISIANA

CITY           SKY/WX    TMP DP  RH WIND       PRES   REMARKS
SHREVEPORT     MOSUNNY   92  71  50 W3        29.96S HX  98
BARKSDALE AFB  MOSUNNY   89  73  59 E6        29.97S HX  97
DTN SHREVEPORT MOSUNNY   91  69  48 NW5       29.96F HX  96

$$

LAZ014-016-260000-
NORTHEAST LOUISIANA

CITY           SKY/WX    TMP DP  RH WIND       PRES   REMARKS
MONROE         PTSUNNY   89  74  60 E3        29.98S HX  98
TALLULAH       MOSUNNY   88  73  61 NE7       29.98F HX  95

$$



USA.gov is the U.S. government's official web portal to all federal, state and local government web resources and services.